Location: Chipmunk Meadow
(41.1540°N, 122.8814°W)
Time: 02:42:38
(UTC+00:00)

Cosmos 2278 Rocket - Visible Passes

Search period start: 25 July 2024 00:00
Search period end: 04 August 2024 00:00
Orbit: 841 x 844 km, 71.0° (Epoch: 24 July)

Date Brightness Start Highest point End Pass type
(mag) Time Alt. Az. Time Alt. Az. Time Alt. Az.
25 Jul 3.6 05:27:23 10° SW 05:32:40 40° WNW 05:38:00 10° N visible
26 Jul 3.5 05:12:34 10° SW 05:17:54 42° WNW 05:23:17 10° N visible
26 Jul 5.3 12:23:46 10° NNE 12:27:04 16° NE 12:30:23 10° E visible
27 Jul 3.5 04:57:45 10° SW 05:03:08 44° WNW 05:08:32 10° NNE visible
27 Jul 5.4 12:09:06 10° NNE 12:12:16 15° NE 12:15:26 10° E visible
28 Jul 3.4 04:42:57 10° SW 04:48:22 46° WNW 04:53:49 10° NNE visible
28 Jul 5.5 11:54:28 10° NNE 11:57:28 14° NE 12:00:28 10° E visible
29 Jul 3.3 04:28:10 10° SW 04:33:36 48° WNW 04:39:05 10° NNE visible
29 Jul 5.5 11:39:51 10° NNE 11:42:40 14° NE 11:45:30 10° ENE visible
30 Jul 3.3 04:13:22 10° SW 04:18:51 50° WNW 04:24:21 10° NNE visible
30 Jul 5.6 11:25:15 10° NNE 11:27:53 13° NE 11:30:31 10° ENE visible
31 Jul 3.2 03:58:35 10° SW 04:04:05 53° WNW 04:09:38 10° NNE visible
31 Jul 5.6 11:10:39 10° NNE 11:13:05 13° NE 11:15:30 10° ENE visible
01 Aug 5.6 10:56:04 10° NNE 10:58:17 12° NE 11:00:29 10° ENE visible
02 Aug 5.9 05:19:11 10° NW 05:19:55 10° NW 05:20:39 10° NW visible
02 Aug 5.5 10:41:32 10° NNE 10:43:28 12° NE 10:45:25 10° ENE visible
02 Aug 2.7 12:23:02 10° NNW 12:28:41 67° ENE 12:34:17 10° SSE visible
03 Aug 5.8 05:03:50 10° NW 05:05:06 11° NW 05:06:23 10° NNW visible
03 Aug 5.5 10:27:02 10° NNE 10:28:40 11° NE 10:30:19 10° ENE visible
03 Aug 2.8 12:08:18 10° NNW 12:13:55 64° ENE 12:19:30 10° SE visible
